Das Wetter in  D-61279 Heinzenberg / Taunus





Wetter Minimum- & Maximum-Werte im Mai 2018

Standort: Heinzenberg / Taunus - Höhe 297 m         8° 24' 1" Ost 50° 21' 51" Nord
(   3-stündige Aktualisierung    letzte Aktualisierung um 20:46 am 31.05.2018  )


Messgrösse

Minimum

Maximum

Durchschnitt

Temperatur West /
Luftfeuchte West
Anklicken für Monats-Diagramm

0,0 °C

06:41
02.05.2018

28 %

16:42
08.05.2018

32,4 °C

16:04
28.05.2018

91 %

12:31
13.05.2018

Temp

16,5 °C

Feuchte

66 %

Temperatur Ost /
Luftfeuchte Ost
Anklicken für Monats-Diagramm

0,0 °C

06:41
02.05.2018

--

--
--

32,8 °C

15:39
28.05.2018

--

--
--

16,8 °C

--

Luftdruck Anklicken für Monats-Diagramm

997,7 hPa

13:15
17.05.2018

1024,6 hPa

06:40
06.05.2018

1013,8 hPa

Taupunkt

-3,3 °C

06:06
02.05.2018

21,4 °C

15:57
31.05.2018

9,6 °C

Windchill
( gefühlte Temperatur )

-8,8 °C

03:20
01.05.2018

32,4 °C

16:04
28.05.2018

16,1 °C

Windgeschwindigkeit /
Windrichtung
Anklicken für Monats-Diagramm

---

60,6 km/h / W-SW

03:20
01.05.2018

2,6 km/h
NO

Helligkeit /
Sonnenschein
Anklicken für Monats-Diagramm
Anklicken für Monats-Diagramm

Sonnenschein:

264:43 Stunden

Max: 13:45 Std am
26.05.2018

114 klux

13:17
25.05.2018

42 klux

Solarstrahlung Anklicken für Monats-Diagramm

---

780 W/m²

13:17
25.05.2018

305 W/m²

Regenmenge
    Mai 2018
Anklicken für Monats-Diagramm

Insgesamt 69,2 l/m²

in 26:03 Stunden
an 16 Tagen

15,0 l/m²

11:36
13.05.2018

Gesamtmenge

69,2 l/m²

Regen-Tage
    Mai 2018
Anklicken für Monats-Diagramm

>   0 mm/Tag

>   2 mm/Tag

>   5 mm/Tag

> 10 mm/Tag

> 20 mm/Tag

16 Tage     
9 Tage     
5 Tage     
3 Tage     
0 Tage     

Eisige Tage Mai 2018 / 2017

Tmin ≤ -10°C     

0 Tage

/

0 Tage

Eistage Mai 2018 / 2017

Tmax <     0°C     

0 Tage

/

0 Tage

Frosttage Mai 2018 / 2017

Tmin ≤     0°C     

0 Tage

/

  1 Tag

Kalte Tage Mai 2018 / 2017

Tmax <   10°C     

0 Tage

/

  1 Tag

Warme Tage Mai 2018 / 2017

Tmax ≥   20°C     

27 Tage

/

20 Tage

Sommertage Mai 2018 / 2017

Tmax ≥   25°C     

17 Tage

/

11 Tage

Heisse Tage Mai 2018 / 2017

Tmax ≥   30°C     

4 Tage

/

3 Tage


Monatsdiagramm Mai 2018

Die Kurven zeigen den Durchschnittswert des jeweiligen Tages an


Wetter-Monatsübersicht Mai 2018
Datum
  Temperatur
   Luftdruck
   Wind
  Regen
   Luftfeuchte
   Helligkeit

Sonnen-
schein

Ø
Temp.

Min.
Temp.

Max.
Temp.

Ø
Luftdruck

Min.
Luftdruck

Max.
Luftdruck

Ø-Geschw.
Haupt-Richtg.

Max.
Wind

Menge /
Dauer

Ø
Feuchte

Min.
Feuchte

Max.
Feuchte

Ø
Helligkeit

Max.
Helligkeit

1.
Mai
9,1 °C3,8 °C
23:56
15,0 °C
17:00
1010,7 hPa1004,5 hPa
00:00
1014,5 hPa
23:56
25,2 km/h
W-SW
60,6 km/h
03:20  
---
15 Minuten
58 %41 %
17:10
72 %
06:40
46,8 klux109,0 klux
12:40
9:01 Std 
2.
Mai
9,1 °C0,0 °C
06:41
17,5 °C
15:26
1012,4 hPa1008,8 hPa
17:21
1015,7 hPa
01:01
0,9 km/h
SO
15,9 km/h
12:01  
---
61 %40 %
15:31
86 %
08:51
36 klux81 klux
11:26
4:41 Std 
3.
Mai
13,1 °C6,3 °C
06:02
20,7 °C
18:27
1014,2 hPa1010,7 hPa
00:07
1019,0 hPa
23:57
1,8 km/h
NW
18,6 km/h
12:12  
---
60 %42 %
14:27
80 %
08:02
44,8 klux112,0 klux
13:52
8:35 Std 
4.
Mai
13,9 °C3,2 °C
06:43
24,0 °C
15:43
1019,6 hPa1018,3 hPa
15:43
1021,8 hPa
23:59
2,3 km/h
NO
18,3 km/h
14:08  
---
55 %34 %
16:03
78 %
06:53
50 klux88 klux
13:28
13:15 Std 
5.
Mai
16,0 °C6,0 °C
06:49
25,6 °C
16:34
1021,7 hPa1019,3 hPa
18:24
1023,6 hPa
06:49
2,5 km/h
NO
22,5 km/h
14:34  
---
52 %31 %
18:14
73 %
07:09
51,2 klux88,7 klux
13:29
13:20 Std 
6.
Mai
17,1 °C6,1 °C
06:40
28,0 °C
16:10
1021,5 hPa1017,9 hPa
17:35
1024,6 hPa
06:40
1,9 km/h
NO
20,8 km/h
14:10  
---
51 %30 %
15:10
76 %
07:25
52,0 klux89,8 klux
13:40
13:35 Std 
7.
Mai
18,1 °C6,2 °C
07:01
28,8 °C
18:11
1017,3 hPa1012,6 hPa
18:16
1021,4 hPa
06:11
2,1 km/h
O-SO
23,1 km/h
15:11  
---
52 %29 %
17:16
80 %
08:11
51,8 klux89,8 klux
13:31
13:40 Std 
8.
Mai
18,5 °C7,3 °C
06:42
29,0 °C
16:32
1010,5 hPa1006,4 hPa
16:32
1015,4 hPa
00:57
2,1 km/h
SO
17,6 km/h
13:12  
---
53 %28 %
16:42
81 %
07:37
51,8 klux90,0 klux
13:22
13:40 Std 
9.
Mai
18,5 °C8,6 °C
06:13
29,0 °C
17:28
1005,9 hPa1002,5 hPa
19:13
1008,8 hPa
06:48
1,0 km/h
O
15,3 km/h
13:33  
---
57 %34 %
16:58
78 %
07:08
47,9 klux112,0 klux
13:48
11:40 Std 
10.
Mai
13,4 °C11,2 °C
23:45
16,4 °C
01:59
1009,7 hPa1003,7 hPa
01:59
1018,8 hPa
23:45
4,8 km/h
W-NW
24,2 km/h
15:54  
9,9 l/m²
6:10 Stunden
80 %68 %
00:04
88 %
11:24
14 klux50 klux
13:24
10 Min 
11.
Mai
14,2 °C6,0 °C
06:50
22,4 °C
17:05
1017,7 hPa1014,6 hPa
18:00
1020,5 hPa
06:50
0,4 km/h
O-NO
16,2 km/h
14:00  
---
30 Minuten
69 %42 %
14:40
90 %
08:50
40,2 klux110,0 klux
14:00
6:15 Std 
12.
Mai
17,1 °C7,5 °C
06:26
26,5 °C
15:56
1013,2 hPa1009,0 hPa
19:36
1016,9 hPa
02:21
0,5 km/h
O-SO
19,2 km/h
12:06  
---
64 %37 %
15:41
87 %
08:31
47 klux103 klux
13:01
10:24 Std 
13.
Mai
15,5 °C11,3 °C
06:16
21,2 °C
16:01
1008,8 hPa1007,2 hPa
16:01
1010,5 hPa
06:36
5,1 km/h
W-NW
25,0 km/h
13:21  
15,0 l/m²
4:52 Stunden
79 %66 %
16:21
91 %
12:31
33 klux101 klux
13:51
4:34 Std 
14.
Mai
19,3 °C12,2 °C
06:13
28,2 °C
16:58
1007,7 hPa1006,5 hPa
16:58
1011,0 hPa
23:59
1,8 km/h
NO
22,9 km/h
16:38  
2,0 l/m²
1:16 Stunden
67 %37 %
17:53
91 %
07:13
49 klux102 klux
14:23
11:25 Std 
15.
Mai
16,4 °C8,8 °C
06:39
24,9 °C
16:34
1012,0 hPa1011,0 hPa
16:34
1013,6 hPa
08:14
1,5 km/h
NO
22,5 km/h
20:19  
---
58 %38 %
16:34
77 %
07:34
43 klux102 klux
12:59
7:55 Std 
16.
Mai
15,4 °C11,0 °C
06:19
21,8 °C
15:14
1013,2 hPa1012,3 hPa
15:14
1015,4 hPa
23:55
1,1 km/h
NO
20,8 km/h
15:14  
6,5 l/m²
3:10 Stunden
72 %51 %
14:59
88 %
07:54
38 klux110 klux
13:14
5:38 Std 
17.
Mai
14,1 °C9,6 °C
08:35
20,3 °C
17:25
1014,5 hPa997,7 hPa
13:15
1018,0 hPa
08:35
10,3 km/h
W-NW
33,6 km/h
16:50  
---
15 Minuten
68 %47 %
17:30
85 %
03:45
43 klux100 klux
14:15
8:35 Std 
18.
Mai
10,2 °C5,3 °C
05:56
17,9 °C
18:11
1017,8 hPa1015,9 hPa
18:11
1019,2 hPa
08:46
1,3 km/h
NW
11,0 km/h
16:31  
---
74 %55 %
17:21
83 %
06:36
23 klux96 klux
16:01
3:05 Std 
19.
Mai
13,3 °C4,7 °C
06:07
23,1 °C
17:17
1017,6 hPa1015,3 hPa
17:17
1019,3 hPa
08:17
1,2 km/h
NO
15,1 km/h
11:47  
---
64 %38 %
15:32
86 %
07:42
50,3 klux109,0 klux
13:07
12:05 Std 
20.
Mai
14,4 °C5,9 °C
05:58
24,4 °C
15:43
1017,3 hPa1014,7 hPa
17:38
1019,5 hPa
05:58
1,4 km/h
O-SO
22,0 km/h
11:33  
0,6 l/m²
1:20 Stunden
70 %46 %
13:28
84 %
07:08
37 klux111 klux
13:18
6:40 Std 
21.
Mai
18,4 °C8,8 °C
05:49
27,3 °C
18:39
1011,5 hPa1007,6 hPa
18:39
1015,7 hPa
02:49
2,8 km/h
O-SO
28,3 km/h
16:04  
---
57 %36 %
14:24
79 %
06:24
50 klux100 klux
14:39
12:10 Std 
22.
Mai
16,4 °C9,2 °C
06:24
26,8 °C
15:14
1009,4 hPa1007,0 hPa
16:39
1012,2 hPa
23:35
0,8 km/h
SO
16,6 km/h
12:19  
4,4 l/m²
1:30 Stunden
69 %39 %
15:14
83 %
07:49
37 klux98 klux
14:54
6:20 Std 
23.
Mai
17,1 °C11,1 °C
06:15
27,6 °C
15:50
1014,2 hPa1012,2 hPa
00:00
1016,2 hPa
11:40
0,8 km/h
NO
17,2 km/h
17:50  
2,1 l/m²
1:00 Stunden
75 %45 %
17:10
90 %
10:10
31,0 klux108,0 klux
13:55
4:05 Std 
24.
Mai
17,1 °C13,2 °C
04:31
23,1 °C
16:31
1015,5 hPa1013,5 hPa
18:06
1016,5 hPa
04:31
0,2 km/h
O-NO
6,7 km/h
16:21  
0,2 l/m²
25 Minuten
77 %64 %
16:26
84 %
23:47
25 klux101 klux
16:26
1:40 Std 
25.
Mai
19,3 °C14,5 °C
04:22
26,6 °C
15:12
1015,2 hPa1013,9 hPa
15:12
1016,1 hPa
23:58
0,2 km/h
SO
12,6 km/h
12:27  
---
10 Minuten
76 %52 %
14:22
89 %
04:37
35 klux114 klux
13:17
4:55 Std 
26.
Mai
21,2 °C12,2 °C
06:23
30,4 °C
16:08
1016,9 hPa1015,5 hPa
16:08
1018,4 hPa
08:08
0,7 km/h
O-SO
15,4 km/h
14:53  
---
66 %41 %
16:08
89 %
08:18
52 klux95 klux
13:23
13:45 Std 
27.
Mai
20,3 °C12,9 °C
06:29
30,3 °C
16:14
1015,5 hPa1012,4 hPa
16:14
1018,2 hPa
00:59
1,6 km/h
O-SO
29,3 km/h
19:19  
10,2 l/m²
1:45 Stunden
70 %41 %
14:34
87 %
23:54
40,1 klux111,0 klux
13:49
6:45 Std 
28.
Mai
22,5 °C13,9 °C
06:09
32,4 °C
16:04
1013,9 hPa1010,2 hPa
17:44
1016,4 hPa
06:54
0,7 km/h
SO
10,3 km/h
17:29  
4,1 l/m²
1:40 Stunden
71 %42 %
15:14
91 %
08:34
49 klux94 klux
14:19
11:35 Std 
29.
Mai
21,0 °C15,0 °C
06:10
28,2 °C
12:40
1010,5 hPa1007,6 hPa
16:45
1012,8 hPa
01:25
2,2 km/h
W-NW
39,2 km/h
14:25  
2,9 l/m²
20 Minuten
76 %60 %
12:45
87 %
07:45
37,2 klux96,0 klux
11:55
6:50 Std 
30.
Mai
22,0 °C14,8 °C
06:21
30,1 °C
17:36
1011,4 hPa1009,4 hPa
17:36
1012,9 hPa
08:21
0,6 km/h
NW
11,0 km/h
12:51  
---
71 %48 %
14:46
89 %
07:36
46,4 klux110,0 klux
13:36
10:55 Std 
31.
Mai
20,8 °C15,2 °C
04:42
27,5 °C
17:52
1011,6 hPa1009,6 hPa
17:52
1012,6 hPa
09:07
0,8 km/h
W
30,6 km/h
14:32  
11,2 l/m²
1:25 Stunden
78 %63 %
17:47
90 %
15:37
37 klux114 klux
12:37
7:30 Std 



Mai
2018

Temperatur

  

Luftdruck

  

Wind

  

Regen

  

Luftfeuchte

  

Helligkeit

Sonnen-
schein

Ø

Min

Max

Ø

Min

Max

Ø

Max

Max

Ø

Min

Max

Ø

Max

Max

16,5 °C

0,0 °C

06:41 Uhr
02.05.2018

32,4 °C

16:04 Uhr
28.05.2018

1013,8 hPa

997,7 hPa

13:15 Uhr
17.05.2018

1024,6 hPa

06:40 Uhr
06.05.2018

2,6 km/h

NO

60,6 km/h

03:20 Uhr
01.05.2018

15,0 l/m²

4:52 Stunden
13.05.2018

66 %

28 %

16:42 Uhr
08.05.2018

91 %

12:31 Uhr
13.05.2018

42 klux

114,0 klux

13:17 Uhr
25.05.2018

13:45 Std

am
26.05.2018

Gesamt

Gesamt

69,2 l/m²

16 Tage
26:03 h

264:43 Std


Wetter-Diagramme Mai 2018     Heinzenberg / Taunus   
TemperaturLuftfeuchte
SolarstrahlungLuftdruck
HelligkeitSonnenschein
RegenmengeRegendauer
Wind-GeschwindigkeitWind-Richtung